Presure
104 153 130 147 147 150 165 143 148 153 148 147 141 139 138 126 133 165 134 130 131 119 126 122 124 185 132 131 148 127 213 189 175 205 181 191 175 237 226 290 346 346 329 338 366 347 349
138 153 131 123 139 131 154 138 143 141 141 182 130 125 127 131 134 173 129 126 129 135 132 126 123 152 120 125 135 135 133 217 213 226 157 202 217 230 243 179 353 344 326 335 343 367 356
117 119 140 136 112 124 118 136 147 131 135 129 137 130 123 118 123 117 123 118 138 119 188 125 151 157 118 188 155 202 141 127 150 204 125 193 189 223 235 197 201 139 330 327 326 355 369
126 137 161 185 120 132 121 134 136 126 128 116 123 124 125 129 128 126 124 133 121 125 168 131 139 145 145 129 210 161 155 132 125 147 212 197 198 219 228 240 203 138 341 328 327 327 342
119 150 126 161 126 131 114 123 116 125 135 126 119 119 119 119 122 128 128 128 127 114 134 148 135 128 173 135 113 204 171 133 204 128 154 199 202 200 227 228 245 260 237 329 325 329 327
159 158 139 138 171 130 123 127 120 121 119 123 128 121 119 160 163 127 187 134 111 159 112 123 136 145 186 133 128 166 145 128 132 151 134 164 194 188 217 234 246 256 232 339 321 324 328
161 124 129 126 173 145 121 129 129 126 125 123 121 117 117 124 134 126 140 124 131 176 161 166 175 173 163 174 211 159 220 125 177 216 136 191 220 186 210 224 235 245 271 335 329 321 329
188 136 153 121 143 113 182 149 136 120 134 127 165 160 111 121 115 124 117 134 134 136 127 209 154 143 168 171 168 136 146 132 177 206 130 201 145 193 208 217 229 231 245 291 342 329 330
182 162 167 179 162 162 127 144 153 161 174 189 173 151 173 170 118 124 115 117 122 117 142 181 166 176 155 171 182 133 120 195 153 188 204 139 169 200 198 201 216 231 153 252 325 341 338
173 178 186 184 179 176 159 150 183 186 182 123 125 194 165 147 127 128 177 149 150 165 164 183 189 213 205 209 156 146 147 128 173 104 214 130 182 218 188 190 207 228 236 223 251 332 343
186 188 188 187 180 184 164 178 152 141 166 186 175 204 193 191 163 177 187 218 110 186 202 178 191 209 159 168 192 208 169 148 205 209 218 130 133 154 198 191 195 220 234 226 215 254 347
181 182 190 186 201 197 196 188 167 197 184 181 193 191 191 186 205 208 120 197 187 218 189 183 187 162 185 202 189 190 216 201 144 201 202 215 171 134 213 199 190 210 224 219 229 243 325
192 200 202 198 196 201 183 198 205 188 184 195 196 192 196 197 208 182 170 159 172 182 168 192 189 187 215 177 213 168 212 195 210 198 208 199 210 142 166 210 200 186 187 221 221 213 250
188 196 193 193 204 193 197 211 187 194 150 186 182 180 180 183 195 192 204 197 191 197 193 187 193 186 211 190 210 199 217 192 209 214 185 208 204 213 207 205 204 211 223 209 221 223 193
208 192 192 191 192 191 192 186 198 191 196 202 191 217 194 194 205 192 198 196 205 179 205 198 200 195 190 191 213 206 208 203 208 208 207 200 205 209 208 211 213 205 183 206 219 218 225
152 186 200 201 193 198 181 189 189 179 202 205 209 193 212 194 204 192 186 205 177 194 206 221 202 193 196 178 216 202 216 207 202 204 208 198 211 205 206 205 142 206 207 221 212 218 214
193 180 167 205 212 204 207 213 205 213 207 199 206 210 215 170 206 198 195 200 184 194 208 199 191 202 178 214 204 204 215 206 202 215 198 208 206 199 211 205 211 181 209 197 196 211 201
232 239 227 236 207 201 157 209 199 184 198 207 210 207 217 213 215 210 206 212 200 170 214 204 215 220 219 231 197 214 214 222 208 205 205 206 200 196 200 148 204 200 205 142 195 213 184
232 229 223 215 230 241 219 209 169 205 189 188 212 199 207 212 209 203 209 208 206 199 215 216 210 206 210 218 223 216 223 212 225 226 207 208 211 205 208 198 209 206 201 198 212 202 207
218 170 228 212 139 148 194 188 226 163 182 222 232 217 216 212 205 216 226 225 216 213 231 225 232 212 136 229 222 227 167 217 228 224 218 219 220 217 213 203 208 203 208 203 206 198 196
229 225 171 227 160 157 159 166 152 207 208 165 225 223 235 229 214 214 221 225 243 205 207 234 237 213 216 233 222 236 191 198 230 207 227 234 221 226 221 213 214 199 199 205 203 202 182
243 235 229 161 220 201 197 187 171 230 238 206 235 234 208 169 170 179 229 218 205 215 224 216 209 162 163 158 214 236 193 198 231 236 249 238 215 228 224 225 220 211 201 201 143 201 206
252 233 194 227 237 238 224 225 221 227 218 223 225 229 228 235 224 170 219 206 211 213 235 222 175 161 194 170 219 175 196 144 171 169 203 220 241 253 229 228 231 220 221 212 201 205 201
251 243 218 233 231 130 239 226 224 189 219 215 223 210 230 188 195 228 193 192 158 195 196 183 189 221 141 230 150 216 226 144 149 176 215 183 217 191 218 238 245 231 228 219 208 208 204
257 245 239 246 264 258 252 225 218 227 143 220 240 143 142 141 149 159 231 229 235 241 249 233 219 218 219 216 212 221 210 215 191 220 223 156 188 247 210 242 214 259 220 224 227 217 214
246 250 245 239 247 238 236 230 231 193 221 209 225 226 228 230 229 233 233 237 239 227 235 235 241 228 227 229 232 226 226 152 211 210 240 210 174 177 186 243 253 198 248 207 218 221 214
249 240 229 236 236 237 236 234 235 208 143 234 165 228 234 115 242 239 230 231 231 232 221 220 222 222 220 217 216 159 224 215 175 236 229 222 225 179 180 188 191 234 231 227 224 219 220
243 251 243 241 243 240 240 170 232 188 238 236 143 219 185 251 231 241 235 203 249 244 233 226 176 215 242 230 216 222 219 217 231 229 227 227 220 234 236 212 221 227 213 230 256 247 223
135 248 246 142 246 234 236 244 250 249 241 233 143 244 245 251 248 238 101 127 157 234 238 220 226 227 232 225 226 222 232 240 243 252 228 244 239 252 241 231 240 216 238 236 225 257 248
Wind_Speed
14 26 23 23 22 20 22 18 18 19 18 18 18 17 18 16 18 23 19 19 20 18 23 24 25 33 28 30 36 35 38 40 41 48 49 54 44 74 57 74 38 28 24 26 18 35 39
28 30 28 23 25 24 25 21 21 21 20 20 18 16 18 20 20 27 21 21 23 26 26 25 26 30 25 32 36 34 33 45 45 52 40 53 60 68 80 40 37 29 28 24 22 20 39
29 25 34 32 20 25 22 25 26 22 23 21 24 22 21 18 20 19 22 19 23 20 38 26 31 25 23 41 31 41 36 37 42 49 29 54 53 62 74 42 48 27 28 26 22 17 22
36 35 32 32 28 30 27 29 28 26 24 20 22 23 23 27 27 26 25 29 24 26 34 31 35 35 34 31 43 39 38 36 35 39 53 52 53 60 67 80 47 30 27 29 21 18 10
35 44 37 38 35 37 29 32 27 29 31 29 25 25 24 23 25 30 31 31 30 21 28 34 33 31 36 33 24 49 41 39 42 36 40 51 53 57 70 72 73 33 25 28 26 18 10
49 45 44 44 42 41 36 37 33 31 31 32 35 31 29 41 35 33 34 36 22 40 25 31 39 39 43 37 35 44 37 36 36 36 37 43 53 52 56 69 73 76 32 33 32 28 17
53 42 45 44 44 49 38 44 42 41 40 38 35 32 32 35 39 34 38 33 38 49 44 43 48 48 44 48 46 42 54 34 42 51 38 43 55 50 52 63 71 76 84 47 38 29 23
58 45 51 41 51 38 48 50 48 40 47 44 51 42 32 36 31 36 32 37 34 39 37 44 41 41 49 49 49 37 40 28 42 45 35 47 37 48 47 54 66 68 70 73 45 36 28
58 55 57 56 55 57 46 47 49 55 53 50 52 51 55 48 36 38 33 35 38 35 44 53 43 51 44 54 50 38 34 51 36 44 41 36 36 45 48 49 57 67 24 72 62 45 33
58 59 62 59 59 56 57 60 56 54 55 46 45 53 61 52 44 46 46 50 46 55 48 54 48 50 48 49 45 43 40 39 48 23 48 34 40 54 48 46 46 61 64 54 72 54 39
65 67 68 68 63 63 64 61 62 59 57 57 62 62 51 54 59 60 54 52 35 55 49 56 48 49 49 56 51 46 56 42 45 44 48 31 32 36 39 45 46 56 63 60 52 70 46
65 67 71 70 74 72 69 65 67 67 63 64 59 59 57 58 60 55 47 54 57 51 54 57 49 56 55 50 50 52 49 45 35 47 42 45 36 32 42 37 43 50 59 54 60 62 56
70 73 74 73 73 75 65 72 72 65 61 63 62 62 65 57 60 64 66 62 66 63 60 55 56 58 52 48 51 47 51 45 45 48 47 42 41 31 34 40 37 42 44 51 47 40 62
69 72 70 68 73 69 70 75 64 64 59 63 63 69 68 63 60 58 57 56 57 55 57 60 54 59 53 55 51 48 54 48 49 51 58 43 43 46 44 39 33 39 45 36 42 43 31
82 75 75 70 71 70 71 66 71 68 71 76 65 73 65 64 66 64 60 56 59 67 58 56 62 57 61 61 53 49 49 45 51 48 44 45 42 41 39 42 40 31 34 33 40 40 44
60 75 80 80 76 77 69 72 70 70 79 80 80 73 79 66 68 64 62 67 68 62 62 66 60 61 60 62 61 56 57 47 43 45 49 42 49 41 41 36 28 32 30 43 34 36 33
82 76 71 89 89 85 86 87 83 85 81 77 82 81 79 66 75 70 70 70 68 68 70 62 66 63 64 66 59 60 59 50 46 54 42 50 47 43 43 41 41 30 35 24 29 29 25
69 64 80 78 90 85 60 89 81 72 77 84 83 81 83 81 81 79 77 78 73 67 76 66 74 76 75 69 65 64 63 62 52 47 45 48 43 43 42 33 38 31 35 29 28 29 25
70 72 77 67 70 69 87 86 62 88 76 71 88 78 82 84 81 77 82 79 74 71 83 78 74 69 75 74 68 62 63 58 61 61 49 50 53 49 55 45 47 37 29 32 33 18 18
73 64 73 80 54 60 82 71 80 64 76 85 85 86 86 84 75 86 85 82 82 83 80 83 79 72 51 74 70 66 55 60 62 60 57 59 60 56 55 38 43 46 40 34 34 21 17
76 74 67 78 72 73 74 73 65 84 78 70 81 76 70 77 84 83 85 81 71 71 73 77 74 68 71 71 69 68 51 50 62 54 56 58 55 54 54 51 48 44 43 39 34 31 24
78 77 77 56 84 88 87 86 74 75 73 85 77 77 82 66 66 67 73 74 77 73 74 75 76 50 52 57 64 65 54 56 57 54 51 51 49 51 53 53 53 47 46 45 37 33 37
78 82 72 81 80 83 84 85 87 84 90 86 83 80 81 74 75 62 82 79 80 80 74 75 65 56 65 64 72 55 57 51 55 58 55 52 52 51 51 50 53 55 51 48 45 42 37
76 79 74 84 86 54 85 86 88 74 87 89 89 79 87 69 69 80 69 71 67 74 74 74 77 76 61 75 54 67 66 58 63 64 62 58 51 48 47 50 49 52 50 48 50 48 44
72 77 79 80 75 82 87 83 88 91 57 91 92 46 47 53 57 62 84 84 81 83 80 80 80 82 82 80 78 76 69 69 65 65 59 62 59 53 43 51 49 49 50 48 49 52 50
74 76 78 79 79 84 87 90 93 82 93 87 95 97 94 90 87 89 87 86 83 85 82 82 80 85 85 87 85 81 80 59 66 64 66 64 61 54 47 51 45 58 45 51 52 54 55
76 78 76 76 87 88 91 94 95 80 63 103 68 99 102 51 93 94 89 89 91 90 85 88 90 88 86 87 87 64 84 82 66 75 73 69 68 61 58 55 55 58 52 53 54 56 59
80 84 85 88 89 92 95 75 98 86 103 103 68 98 76 106 91 97 97 84 93 94 93 93 62 86 91 89 89 87 85 84 86 81 79 78 71 72 69 57 53 57 56 54 53 57 62
68 86 89 45 96 90 93 99 103 105 104 101 68 110 114 114 99 95 19 67 64 100 101 92 90 88 91 90 90 95 94 96 98 100 84 91 90 89 78 69 70 61 57 56 56 55 56
Wind_Direction
227 263 257 255 261 265 283 262 267 275 277 278 278 281 283 286 290 296 293 298 303 306 306 314 317 309 311 325 315 326 330 319 321 322 323 326 331 354 343 358 347 340 337 334 290 242 226
253 260 258 267 260 268 269 267 265 267 269 295 277 281 282 281 283 298 290 295 296 294 296 301 312 315 325 323 315 319 323 339 336 346 323 330 347 354 358 329 352 346 347 345 339 275 238
259 241 254 256 255 272 269 263 266 268 269 274 271 274 279 277 282 285 289 295 303 308 309 308 311 319 319 312 324 324 316 324 324 341 319 328 334 352 358 331 348 316 342 347 345 332 254
260 267 275 276 265 253 267 265 263 269 270 264 271 274 278 280 282 283 287 287 293 296 306 299 299 308 304 306 332 318 314 318 323 323 345 331 336 352 358 1 347 314 353 349 349 350 347
255 260 262 265 262 261 256 265 261 270 268 270 268 270 273 276 282 286 290 292 293 294 298 301 305 301 311 308 307 331 329 315 333 323 325 331 340 344 3 359 2 355 342 2 2 346 339
264 261 259 258 264 263 262 265 264 264 265 269 271 270 274 284 288 284 294 287 284 294 296 301 298 298 313 301 302 316 319 314 315 324 324 334 336 341 357 2 4 10 349 13 7 360 344
259 253 257 256 263 263 259 264 265 265 265 264 264 265 270 278 278 284 282 288 288 292 296 297 303 305 303 311 323 311 333 313 330 344 318 341 351 335 351 0 5 8 14 15 3 359 346
275 257 259 256 263 256 281 268 265 266 266 269 274 279 269 275 275 279 282 286 293 291 290 312 296 297 304 306 308 307 308 315 328 338 318 344 326 331 352 1 8 7 8 16 12 7 358
273 266 267 270 265 268 264 267 266 267 273 286 278 273 274 280 277 280 280 283 286 287 288 291 298 298 297 305 310 297 301 322 317 329 337 317 334 338 340 350 4 8 332 13 18 12 4
268 270 275 276 274 270 263 263 278 277 281 271 271 288 275 273 279 279 291 284 286 288 294 289 296 315 315 319 300 300 299 300 320 295 335 309 336 353 329 335 357 8 10 8 15 16 9
270 272 274 274 269 275 260 266 265 267 275 277 271 294 285 285 279 279 285 307 276 291 301 290 303 310 297 302 311 320 308 301 323 329 333 309 308 326 334 337 342 9 12 8 7 15 15
265 267 268 271 274 275 277 276 269 282 271 270 284 284 280 278 296 299 274 291 285 301 289 290 298 293 297 309 307 307 320 315 304 319 327 335 326 311 349 340 336 3 10 7 13 12 24
268 274 274 273 273 276 268 278 282 278 277 285 286 282 291 286 294 277 278 283 282 285 286 294 293 294 308 298 312 300 315 311 322 317 328 329 335 308 325 349 347 338 340 11 11 7 21
265 270 269 271 277 272 277 280 270 276 269 272 269 279 272 276 287 286 293 285 284 287 289 290 293 292 304 297 307 304 312 304 318 323 309 327 330 336 336 339 343 354 3 3 11 15 10
270 268 270 269 272 272 274 268 280 276 280 282 273 281 277 279 288 279 281 282 292 282 294 289 293 293 292 295 303 300 306 305 314 317 318 313 328 331 333 336 339 343 321 358 8 15 22
264 269 272 272 270 272 267 271 272 269 281 283 282 276 285 279 278 279 276 290 276 281 293 295 292 289 292 290 303 301 304 302 302 309 314 310 320 322 326 326 307 334 342 355 7 11 14
267 268 267 272 273 273 275 275 277 279 278 278 282 282 282 276 283 281 282 284 279 285 291 286 286 290 287 298 296 297 300 298 298 305 301 311 315 309 324 323 330 317 338 333 338 6 352
262 263 263 264 267 270 271 273 274 272 277 279 279 281 280 281 282 283 285 287 285 281 290 288 293 293 295 292 293 296 298 296 294 297 300 305 304 303 308 295 314 316 325 288 319 352 321
260 259 262 264 263 267 267 269 269 271 275 277 275 279 281 278 280 284 283 283 284 286 287 287 288 287 290 292 293 295 292 294 292 293 296 299 303 306 307 307 310 308 314 317 329 330 346
265 263 261 264 274 276 268 271 266 275 273 272 267 272 274 277 274 278 278 278 281 282 281 283 284 283 274 286 289 288 292 290 289 290 292 294 294 296 298 296 299 302 307 308 315 301 302
264 262 268 261 269 272 273 272 275 269 268 274 267 272 267 267 274 277 277 277 276 279 282 282 281 281 286 285 285 285 285 289 289 290 289 286 289 290 289 293 295 291 294 298 299 302 281
267 265 260 266 260 266 270 270 271 269 268 272 268 268 273 268 270 274 273 276 277 276 275 280 283 275 275 275 279 279 283 290 290 289 291 286 288 288 285 284 286 285 285 288 280 288 298
263 265 267 263 264 261 263 265 266 266 269 270 268 267 268 269 270 272 270 274 274 277 273 275 274 270 275 273 282 278 284 276 280 284 288 290 288 288 282 279 280 281 281 276 283 283 284
265 263 265 265 267 276 263 264 266 265 269 270 271 270 270 270 271 269 268 270 269 271 273 279 280 276 267 275 270 279 280 276 278 283 287 284 282 283 284 282 277 275 275 274 275 276 276
267 265 264 264 266 264 264 266 266 267 263 267 270 258 258 264 268 269 269 270 272 275 272 267 270 274 275 277 278 278 277 279 275 282 280 281 283 279 277 282 277 276 273 271 269 268 270
266 266 264 263 264 263 262 263 263 267 268 267 268 270 271 271 272 271 271 271 268 269 268 270 266 269 269 272 274 277 279 274 283 283 282 278 269 270 271 276 277 277 271 274 269 266 266
265 265 264 264 262 262 262 263 264 265 272 267 270 269 269 282 270 269 268 269 269 268 269 270 269 269 272 274 277 270 277 276 274 278 277 280 279 269 268 269 275 272 269 271 266 264 264
267 264 263 262 261 261 261 269 263 269 264 267 266 266 260 268 269 269 270 270 269 268 268 267 271 276 268 270 275 277 278 278 278 279 279 279 278 280 278 272 270 269 270 269 272 263 260
265 268 267 256 264 267 268 267 265 265 267 269 276 270 271 270 267 266 253 272 276 266 268 268 268 271 272 273 275 273 276 276 276 275 277 275 275 274 276 275 276 267 270 273 268 269 266